Погода в Софиевке

Украина / Запорожская область     48°02′03″N   35°57′28″E
темп.,
°C
ветер,
м/с
пор.,
м/с
влажн.,
%
обл.,
%
осадки,
мм/ч
давл.,
гПа
погр.,
м
22 апреля, чт
чт2200:00+8ююз498619 0.0 1018175
03:00+7юз479040 0.0 1019159
06:00+6юз35925 0.0 1021107
09:00+12юз34675 0.0 1021527
12:00+16юз43505 0.3 10211643
15:00+17юз4342100 0.6 10202180
18:00+15юз345378 0.1 1020191
21:00+11ююз5107710 0.2 1022244
23 апреля, пт
пт2300:00+9ююз378726 0.0 1021142
03:00+8юз38903 0.0 1021163
06:00+7ююз37902 0.0 1021146
09:00+13ююз58621 0.0 1021628
12:00+16ююз78475 0.0 10201730
15:00+18ююз794260 0.0 10182402
18:00+16ю695046 0.0 10161495
21:00+12ююз71367100 0.0 1017550
24 апреля, сб
сб2400:00+10ю51181100 0.6 1016366
03:00+9зюз5890100 1.1 1015629
06:00+7сз5884100 0.5 1016638
09:00+9з57665 0.5 10171089
12:00+12з71039100 0.0 10172651
15:00+13з81237100 0.0 10172969
18:00+9зсз8125317 0.3 10181916
21:00+5з38600 0.3 1021234
25 апреля, вс
вс2500:00+4зюз37620 0.0 1022136
03:00+3з36660 0.0 1022110
06:00+2з36730 0.0 1022125
09:00+8з45480 0.0 10221175
12:00+11зсз44365 0.0 10221900
15:00+13зсз34336 0.0 10202031
18:00+12з233556 0.0 10192021
21:00+7юз355592 0.0 102074
26 апреля, пн
пн2600:00+6ююз36549 0.0 101996
03:00+5юз367297 0.0 1019109
06:00+5юз3581100 0.0 101896
09:00+10юз585983 0.0 1017913
12:00+6зсз6886100 0.2 1018838
15:00+10з685061 0.3 10171860
18:00+11зсз584027 0.0 10162373
21:00+7з365595 0.0 1018104